INTELSAT 23 (IS-23)

Last updated on Wed Sep 09 2026 00:02:59 GMT+0000 (Coordinated Universal Time)

1 38867U 12057A 26251.50584222 -.00000306 00000+0 00000+0 0 9999 2 38867 0.0297 265.0920 0001460 332.8293 238.7608 1.00275144 50796
UTC large
Height (km)
Speed (km/s)
/
Latitude / Longitude
Inclination (degrees)
Orbital Period (minutes)
Azimuth
Elevation
Range (km)
Doppler Factor

Next 0 passes for location: London (51.5072 / 0.1276)

No passes found over London.
INTELSAT 23 (IS-23)